Theta_e
325 327 331 332 333 333 333 337 340 340 341 341 344 345 345 346 347 346 346 345 345 345 346 349 352 351 351 348 346 344 339 335 333
321 323 327 330 332 333 333 335 338 339 340 341 343 345 346 347 347 347 346 346 345 345 348 349 350 351 351 348 346 342 339 335 334
321 322 323 328 331 332 333 334 338 340 341 341 343 346 346 347 347 348 347 347 344 344 346 348 348 350 350 348 345 341 338 336 335
320 322 323 326 329 332 333 334 336 338 340 341 342 346 347 347 347 348 348 346 345 345 346 346 347 348 348 347 344 341 337 336 335
319 323 324 326 328 330 331 331 333 336 339 341 342 344 347 347 348 348 347 347 347 347 345 345 345 347 348 347 345 342 339 336 336
317 321 324 326 326 327 329 330 332 335 337 340 343 344 345 346 347 347 347 347 349 348 347 345 344 346 346 346 345 343 341 340 338
314 318 322 325 326 326 328 330 332 334 337 340 342 343 344 344 346 347 347 349 350 350 349 346 344 344 346 346 346 345 343 341 339
318 319 321 322 325 325 326 328 332 335 337 341 343 343 343 344 346 346 347 347 349 350 351 350 347 345 344 345 345 344 343 343 341
315 318 321 322 325 326 327 327 331 335 337 340 343 343 342 345 346 347 346 346 346 347 349 351 349 348 346 344 345 337 335 341 342
311 317 320 321 323 325 328 327 331 334 336 341 342 343 344 345 346 346 347 347 346 345 345 349 349 349 348 345 346 332 332 336 343
306 311 319 321 323 324 327 330 330 334 337 339 343 343 343 345 346 346 348 348 347 347 347 346 346 348 348 348 347 329 328 334 345
308 310 316 321 324 325 326 327 332 333 335 338 341 343 344 346 347 346 347 348 348 349 349 348 347 348 348 346 346 325 325 330 343
310 312 315 317 320 323 322 324 326 331 334 336 338 344 345 348 349 348 347 348 349 351 352 351 351 350 349 342 347 323 321 330 342
312 313 314 316 319 324 326 327 331 332 334 336 339 343 347 349 350 350 351 350 351 352 352 353 352 351 351 348 345 340 318 323 342
313 313 315 316 319 321 325 331 333 333 334 338 342 343 345 347 350 351 352 352 352 352 352 352 352 351 349 347 347 326 315 319 325
325 332 333 320 313 327 334 331 334 330 333 337 338 341 342 347 351 351 353 352 352 352 353 351 350 349 347 346 346 328 316 315 319
339 340 340 342 341 340 340 344 341 337 339 339 336 336 337 340 342 346 351 353 354 353 352 351 350 348 346 342 338 333 325 326 326
336 338 339 340 340 341 340 343 345 348 347 342 339 337 336 339 340 327 322 318 322 330 323 340 339 339 338 334 332 325 315 318 329
333 333 337 337 338 339 340 341 342 345 348 347 346 342 340 333 328 327 329 325 321 307 310 308 308 311 322 326 316 308 309 306 306
326 330 332 332 333 333 333 335 338 340 340 340 336 332 330 329 328 331 331 331 326 321 316 306 308 309 311 312 307 312 307 301 303
Wind_Speed
21 21 22 24 25 22 20 21 20 19 19 18 18 18 19 17 16 10 11 10 8 7 7 7 7 10 8 9 8 7 7 5 5
20 21 22 25 25 23 22 20 23 22 20 20 19 20 17 17 15 14 13 12 9 8 8 7 8 9 10 9 9 8 8 6 7
19 17 21 22 22 22 21 22 21 21 21 21 20 19 17 16 18 17 14 11 12 12 10 9 9 9 10 10 10 9 9 6 4
17 17 19 21 21 21 22 19 18 21 21 20 20 19 18 18 16 16 15 13 13 13 11 11 11 11 11 11 11 11 10 9 8
10 13 17 20 21 20 18 20 18 20 19 19 20 19 19 20 18 17 17 16 14 13 13 10 12 11 12 12 12 12 13 13 11
9 9 9 14 14 16 19 19 19 19 19 22 20 19 18 18 18 18 19 18 16 14 14 13 12 12 14 14 14 13 13 13 13
9 8 8 12 13 16 18 18 19 19 20 19 18 19 19 20 20 21 20 19 18 16 16 15 15 14 14 14 13 14 13 13 12
6 9 8 10 13 14 15 15 16 17 17 17 18 18 19 22 19 19 18 18 17 16 16 16 15 15 13 13 13 12 14 13 13
9 10 10 9 9 10 11 15 17 18 17 19 20 20 23 20 19 18 19 17 17 17 16 17 15 16 16 16 12 17 19 16 13
11 12 12 11 13 12 13 14 16 18 19 17 19 20 19 19 19 19 19 17 16 18 18 16 18 18 17 18 18 19 22 22 13
14 11 11 11 11 12 12 14 14 14 13 16 18 19 18 16 17 18 18 18 20 19 17 18 17 17 19 18 17 18 21 23 16
15 13 14 16 15 14 13 13 14 12 12 15 15 16 16 17 19 19 18 19 21 18 16 16 18 16 16 18 17 18 20 18 14
13 11 7 10 10 6 7 10 8 12 15 15 17 18 20 19 20 20 20 21 19 16 15 16 12 14 15 17 16 18 21 21 12
9 10 12 8 9 11 15 9 12 14 14 16 21 18 16 16 17 18 18 15 14 15 14 12 15 15 13 15 17 14 22 26 13
6 8 5 6 5 3 4 2 7 10 14 18 6 8 13 14 16 14 14 17 14 15 17 18 17 14 12 11 13 14 19 24 15
5 5 5 5 7 7 6 5 6 4 2 4 6 5 5 4 4 7 9 12 11 7 9 10 11 10 11 10 10 10 25 21 20
9 8 9 9 12 12 10 8 6 3 5 7 8 9 8 7 7 5 3 3 3 6 6 7 5 6 7 5 3 4 5 11 7
11 10 11 11 13 10 9 7 8 5 3 3 4 5 6 6 6 9 9 6 3 6 3 4 5 5 5 5 4 3 17 15 16
11 12 12 12 11 9 7 7 6 7 7 6 8 8 6 6 7 7 7 11 10 15 19 21 25 24 17 9 9 2 20 13 12
12 13 13 13 11 9 8 7 7 6 6 8 9 9 8 7 8 6 8 11 14 12 5 10 23 21 20 18 3 22 19 17 17
Wind_Direction
218 213 212 212 210 207 200 196 198 193 191 199 194 193 198 202 203 199 204 198 192 202 199 203 194 199 194 192 187 183 174 183 176
221 215 212 213 212 207 203 200 198 195 196 196 195 198 197 197 199 203 205 198 189 196 195 198 192 194 196 190 186 182 174 189 185
221 210 209 213 212 209 205 201 199 196 197 196 195 198 195 198 198 198 203 198 195 198 197 196 181 193 195 189 186 182 176 187 180
213 207 207 210 209 205 203 202 193 198 196 194 195 191 196 196 198 200 202 204 202 201 194 196 185 190 193 194 187 186 185 191 186
210 203 205 208 205 200 196 199 195 196 194 197 198 195 193 197 193 195 199 204 205 196 197 196 193 192 196 198 193 188 192 197 193
243 228 200 207 203 197 198 194 193 191 193 201 196 193 195 198 196 193 200 204 203 195 196 193 193 194 199 199 198 190 199 199 197
235 228 222 204 198 199 197 192 193 190 197 197 192 194 195 196 198 197 199 203 201 195 195 194 194 199 201 201 198 197 200 200 200
235 240 219 203 199 196 196 194 192 194 193 189 188 192 196 204 199 201 202 201 200 198 197 200 196 198 202 203 201 201 201 200 199
228 237 227 214 209 202 193 190 191 191 191 190 184 190 202 197 197 198 202 200 197 200 197 199 197 199 201 203 208 203 197 194 197
216 227 227 206 205 200 202 196 191 193 193 185 191 197 203 198 195 198 201 197 197 202 202 192 200 201 199 206 211 197 194 193 197
226 220 226 225 219 209 202 196 192 199 187 189 194 203 199 194 197 205 197 195 202 204 201 202 200 200 203 206 212 194 190 190 203
221 217 217 218 217 212 208 195 192 178 183 191 194 199 197 198 196 199 199 203 205 204 202 203 207 206 199 205 212 187 183 181 196
223 220 205 211 223 229 187 205 166 167 187 184 196 197 202 198 196 198 200 204 205 204 201 207 204 210 208 204 207 185 179 180 186
221 212 213 221 180 201 212 186 164 184 181 193 207 200 196 198 198 199 202 202 199 196 205 208 206 205 203 201 201 191 185 180 187
237 238 225 197 190 92 81 104 176 180 185 208 185 188 195 195 196 196 196 195 193 195 193 199 203 200 191 193 193 176 179 180 193
74 68 67 78 110 81 43 86 99 134 45 107 107 146 209 211 242 230 214 199 197 215 202 205 205 203 212 205 197 181 176 183 158
73 54 60 72 78 71 54 41 59 124 187 172 156 173 171 155 150 138 119 139 171 187 193 209 210 211 207 179 205 222 194 154 129
86 84 75 74 75 72 59 40 45 32 50 120 126 120 128 125 112 110 105 82 63 100 43 130 128 113 81 83 83 104 59 314 129
85 79 82 79 75 74 66 51 37 20 28 83 103 93 87 99 113 113 109 100 84 53 102 97 93 87 90 50 42 14 94 98 14
74 70 67 71 76 81 83 71 54 37 60 81 95 106 107 105 112 119 119 129 127 122 74 100 126 129 138 159 146 188 166 148 157